COSMOS 2506 DEB, 47212

Orbit data source: Space-Track

COSMOS 2506 DEB, 47212 is space debris in SSO originally from a launch on Tue, 23 Jun 2015 UTC launched from the Plesetsk Missile And Space Complex (PKMTR). Debris objects in space refer to the collection of defunct objects orbiting the Earth. Examples of debris include non-operational satellites, rocket bodies, and fragments generated from explosions, collisions, or faulty payload assembly.

Loading next visibility...
Identifier
47212, 2015-029C
Orbit
SSO
Country
Flag of CISCIS
Related business
Manufacturer
Unknown
Mission
Spacecraft
Bus & Motor
Unknown
Mass
Unknown
Launch date (UTC)
2015-06-23 (10 years ago)
Launch vehicle
Unknown
Launch site
Plesetsk Missile And Space Complex (PKMTR)
Object type
Payload
Rocket body
Debris
Shape & HBR
Unknown shape, 0.1 m
Radar Cross Section
Small (<0.1 m²)

Expand to show TLE details & history
Last TLE update: 3 days ago

TLE from 3 days ago
0 COSMOS 2506 DEB
1 47212U 15029C   25308.46194537  .00005635  00000-0  94001-3 0  9996
2 47212  98.1426  16.6339 0008202 126.9818 233.2140 14.70328345264580
Epoch: 2025-11-04T11:05Z
TLE epoch observation values (Epoch: 2025-11-04T11:05:12.079Z)
Latitude
-0.00004°
Longitude
166.38495°
Altitude
666.482 km
Speed
7.522 km/s
True Right ascension
01h 06m 32s
True Declination
0° 00' 00"
Sunlit
Object was in full shadow at epoch
Visualization orbit readout
Latitude
Unknown
Longitude
Unknown
Altitude
Unknown
Speed
Unknown
Apparent Right ascension
Unknown
Apparent Declination
Unknown
Sunlit
N/A
Visualization observer readout
Local Sidereal Time
16:30:52
Azimuth
Unknown
Elevation
Unknown
Doppler factor
Unknown
Orbital elements
Apogee altitude
662.855 km
Perigee altitude
651.315 km
Semi-major axis
7,035.222 km
Eccentricity
0.00082
Inclination
98.1426°
RAAN
16.6339°
Arg. of periapsis
126.9818°
True anomaly
233.13877°
Mean anomaly
233.214°
Eccentric anomaly
233.17638°
Mean motion
3.67812 °/min
Orbital period
97.88 mins
BSTAR
0.00094001
Loading maneuver chart data...
Computing Atmospheric mass density...
Loading historical data...
Loading historical data...
Loading historical data...
Loading historical data...
Loading historical data...
Loading historical data...
Loading historical data...
Other satellites on launch #29 in the year 2015 (2015-06-23 UTC)

Documentation

Showing up to 5 results
|